Location: Geroldsau
(48.7259°N, 8.2466°E)
Time: 18:14:56
(UTC+00:00)

IRS-1D - Visible Passes

Search period start: 17 October 2021 00:00
Search period end: 27 October 2021 00:00
Orbit: 740 x 816 km, 98.6° (Epoch: 17 October)

Date Brightness Start Highest point End Pass type
(mag) Time Alt. Az. Time Alt. Az. Time Alt. Az.
17 Oct 6.3 01:08:10 10° NE 01:08:51 13° NE 01:08:51 13° NE visible
17 Oct 5.2 02:47:04 10° N 02:49:19 24° N 02:49:19 24° N visible
18 Oct 5.5 02:13:56 10° NNE 02:15:48 23° NNE 02:15:48 23° NNE visible
18 Oct 5.5 03:54:41 10° NNW 03:56:16 14° NW 03:56:16 14° NW visible
19 Oct 6.0 01:41:02 10° NNE 01:42:17 17° NNE 01:42:17 17° NNE visible
19 Oct 5.3 03:20:49 10° N 03:22:46 19° NNW 03:22:46 19° NNW visible
20 Oct 6.5 01:08:30 10° NE 01:08:47 11° NE 01:08:47 11° NE visible
20 Oct 5.3 02:47:24 10° N 02:49:16 21° N 02:49:16 21° N visible
21 Oct 5.7 02:14:16 10° NNE 02:15:44 20° NNE 02:15:44 20° NNE visible
21 Oct 5.5 03:55:02 10° NNW 03:56:12 13° NNW 03:56:12 13° NNW visible
22 Oct 6.1 01:41:22 10° NNE 01:42:14 15° NNE 01:42:14 15° NNE visible
22 Oct 5.4 03:21:09 10° N 03:22:42 17° NNW 03:22:42 17° NNW visible
23 Oct 5.5 02:47:44 10° N 02:49:11 19° N 02:49:11 19° N visible
24 Oct 5.9 02:14:34 10° NNE 02:15:40 17° NNE 02:15:40 17° NNE visible
24 Oct 5.6 03:55:23 10° NNW 03:56:08 12° NNW 03:56:08 12° NNW visible
25 Oct 6.3 01:41:41 10° NNE 01:42:10 13° NNE 01:42:10 13° NNE visible
25 Oct 5.6 03:21:29 10° N 03:22:38 15° NNW 03:22:38 15° NNW visible
26 Oct 5.7 02:48:03 10° N 02:49:06 16° N 02:49:06 16° N visible
